Terra Bella
DateTemperatureDew Point
05/02 - 08:00 AM71.0°57.1°
05/02 - 07:45 AM69.9°56.4°
05/02 - 07:30 AM67.8°56.0°
05/02 - 07:15 AM65.8°56.9°
05/02 - 07:00 AM62.0°57.7°
05/02 - 06:45 AM58.4°57.5°
05/02 - 06:30 AM55.9°55.9°
05/02 - 06:15 AM53.6°53.6°
05/02 - 06:00 AM52.9°52.9°
05/02 - 05:45 AM53.1°53.1°
05/02 - 05:30 AM53.3°53.3°
05/02 - 05:15 AM53.5°53.5°
05/02 - 05:00 AM53.3°53.3°
05/02 - 04:45 AM53.3°53.3°
05/02 - 04:30 AM53.3°53.3°
05/02 - 04:15 AM53.4°53.4°
05/02 - 04:00 AM53.8°53.8°
05/02 - 03:45 AM54.1°54.1°
05/02 - 03:30 AM54.3°54.3°
05/02 - 03:15 AM54.5°54.5°
05/02 - 03:00 AM54.9°54.7°
05/02 - 02:45 AM55.2°54.8°
05/02 - 02:30 AM55.5°54.9°
05/02 - 02:15 AM55.7°54.9°
05/02 - 02:00 AM56.1°55.1°
05/02 - 01:45 AM56.5°55.0°
05/02 - 01:30 AM56.9°55.1°
05/02 - 01:15 AM57.5°55.2°
05/02 - 01:00 AM57.9°55.2°
05/02 - 12:45 AM58.1°55.6°
05/02 - 12:30 AM58.2°55.9°
05/02 - 12:15 AM58.1°55.9°
05/02 - 12:00 AM58.6°56.0°
05/01 - 11:45 PM59.1°55.9°
05/01 - 11:30 PM59.6°56.0°
05/01 - 11:15 PM60.5°55.9°
05/01 - 11:00 PM61.3°55.1°
05/01 - 10:45 PM61.8°54.6°
05/01 - 10:30 PM61.9°55.2°
05/01 - 10:15 PM62.0°55.6°
05/01 - 10:00 PM62.8°55.5°
05/01 - 09:45 PM63.1°55.9°
05/01 - 09:30 PM64.0°55.7°
05/01 - 09:15 PM64.8°55.7°
05/01 - 09:00 PM65.2°56.3°
05/01 - 08:45 PM65.9°56.3°
05/01 - 08:30 PM67.1°57.1°
05/01 - 08:15 PM69.0°57.2°
05/01 - 08:00 PM70.5°56.8°
05/01 - 07:45 PM72.6°56.5°
05/01 - 07:30 PM75.5°56.4°
05/01 - 07:15 PM78.8°55.6°
05/01 - 07:00 PM80.8°54.9°
05/01 - 06:45 PM82.4°55.3°
05/01 - 06:30 PM83.2°54.6°
05/01 - 06:15 PM84.1°54.5°
05/01 - 06:00 PM85.4°54.5°
05/01 - 05:45 PM87.7°54.9°
05/01 - 05:30 PM87.9°54.7°
05/01 - 05:15 PM88.1°53.9°
05/01 - 05:00 PM89.8°54.2°
05/01 - 04:45 PM90.1°52.7°
05/01 - 04:30 PM90.7°52.0°
05/01 - 04:15 PM91.3°52.6°
05/01 - 04:00 PM90.8°52.9°
05/01 - 03:45 PM90.6°52.8°
05/01 - 03:30 PM90.0°52.6°
05/01 - 03:15 PM90.4°52.6°
05/01 - 03:00 PM90.4°53.5°
05/01 - 02:45 PM90.0°53.9°
05/01 - 02:30 PM88.6°54.4°
05/01 - 02:15 PM88.8°54.9°
05/01 - 02:00 PM88.8°57.5°
05/01 - 01:45 PM87.2°57.5°
05/01 - 01:30 PM86.8°58.0°
05/01 - 01:15 PM86.2°59.1°
05/01 - 01:00 PM86.2°59.5°
05/01 - 12:45 PM86.3°59.8°
05/01 - 12:30 PM85.5°60.4°
05/01 - 12:15 PM84.7°59.9°
05/01 - 12:00 PM84.1°59.7°
05/01 - 11:45 AM83.1°59.6°
05/01 - 11:30 AM82.9°59.7°
05/01 - 11:15 AM82.7°59.7°
05/01 - 11:00 AM80.7°59.0°
05/01 - 10:45 AM80.1°58.7°
05/01 - 10:30 AM80.3°59.0°
05/01 - 10:15 AM79.0°58.7°
05/01 - 10:00 AM77.8°58.1°
05/01 - 09:45 AM76.3°57.5°
05/01 - 09:30 AM75.8°57.2°
05/01 - 09:15 AM75.0°56.8°
05/01 - 09:00 AM74.3°57.2°
05/01 - 08:45 AM74.1°57.2°
05/01 - 08:30 AM73.3°56.9°
05/01 - 08:15 AM72.1°56.7°
05/01 - 08:00 AM71.2°56.5°
05/01 - 07:45 AM70.2°57.0°
05/01 - 07:30 AM68.9°58.3°
05/01 - 07:15 AM66.4°59.1°
05/01 - 07:00 AM62.8°59.8°
05/01 - 06:45 AM58.4°58.4°
05/01 - 06:30 AM55.3°55.3°
05/01 - 06:15 AM52.5°52.5°
05/01 - 06:00 AM51.5°51.5°
05/01 - 05:45 AM51.5°51.5°
05/01 - 05:30 AM51.7°51.7°
05/01 - 05:15 AM52.0°52.0°
05/01 - 05:00 AM52.0°52.0°
05/01 - 04:45 AM52.4°52.4°
05/01 - 04:30 AM52.2°52.2°
05/01 - 04:15 AM52.8°52.8°
05/01 - 04:00 AM52.9°52.9°
05/01 - 03:45 AM52.8°52.8°
05/01 - 03:30 AM52.8°52.8°
05/01 - 03:15 AM52.9°52.9°
05/01 - 03:00 AM53.2°53.2°
05/01 - 02:45 AM53.4°53.4°
05/01 - 02:30 AM53.8°53.8°
05/01 - 02:15 AM54.2°54.2°
05/01 - 02:00 AM54.4°54.3°
05/01 - 01:45 AM55.0°54.8°
05/01 - 01:30 AM55.3°55.0°
05/01 - 01:15 AM55.2°54.8°
05/01 - 01:00 AM55.6°55.0°
05/01 - 12:45 AM55.9°55.2°
05/01 - 12:30 AM56.1°55.2°
05/01 - 12:15 AM56.3°55.2°
05/01 - 12:00 AM56.6°55.3°
04/30 - 11:45 PM57.0°55.3°
04/30 - 11:30 PM57.3°55.5°
04/30 - 11:15 PM57.7°55.8°
04/30 - 11:00 PM57.8°55.8°
04/30 - 10:45 PM58.3°55.9°
04/30 - 10:30 PM58.9°55.7°
04/30 - 10:15 PM59.6°55.7°
04/30 - 10:00 PM59.9°56.1°
04/30 - 09:45 PM60.4°56.0°
04/30 - 09:30 PM61.4°55.7°
04/30 - 09:15 PM61.9°55.5°
04/30 - 09:00 PM62.7°55.7°
04/30 - 08:45 PM63.5°55.7°
04/30 - 08:30 PM64.5°55.7°
04/30 - 08:15 PM66.5°56.5°
04/30 - 08:00 PM68.3°55.9°
04/30 - 07:45 PM70.3°55.3°
04/30 - 07:30 PM72.8°55.3°
04/30 - 07:15 PM75.0°55.3°
04/30 - 07:00 PM77.4°55.1°
04/30 - 06:45 PM78.9°54.2°
04/30 - 06:30 PM79.9°54.0°
04/30 - 06:15 PM80.9°53.9°
04/30 - 06:00 PM81.9°53.1°
04/30 - 05:45 PM83.6°53.6°
04/30 - 05:30 PM84.4°54.3°
04/30 - 05:15 PM84.7°55.2°
04/30 - 05:00 PM86.8°55.8°
04/30 - 04:45 PM87.7°54.5°
04/30 - 04:30 PM87.2°54.7°
04/30 - 04:15 PM86.7°54.6°
04/30 - 04:00 PM86.9°55.5°
04/30 - 03:45 PM87.0°54.8°
04/30 - 03:30 PM86.8°54.0°
04/30 - 03:15 PM86.8°53.8°
04/30 - 03:00 PM86.6°53.4°
04/30 - 02:45 PM86.7°53.4°
04/30 - 02:30 PM86.2°53.1°
04/30 - 02:15 PM85.5°52.5°
04/30 - 02:00 PM84.2°52.5°
04/30 - 01:45 PM83.9°53.0°
04/30 - 01:30 PM84.6°54.7°
04/30 - 01:15 PM83.2°55.4°
04/30 - 01:00 PM83.0°56.2°
04/30 - 12:45 PM82.3°56.0°
04/30 - 12:30 PM81.6°56.4°
04/30 - 12:15 PM81.6°55.8°
04/30 - 12:00 PM81.0°56.5°
04/30 - 11:45 AM80.1°56.3°
04/30 - 11:30 AM78.9°55.8°
04/30 - 11:15 AM79.3°56.3°
04/30 - 11:00 AM78.0°55.8°
04/30 - 10:45 AM77.1°56.0°
04/30 - 10:30 AM76.3°55.9°
04/30 - 10:15 AM75.7°55.5°
04/30 - 10:00 AM75.0°55.7°
04/30 - 09:45 AM73.2°54.9°
04/30 - 09:30 AM72.0°54.6°
04/30 - 09:15 AM70.9°54.3°
04/30 - 09:00 AM69.9°54.1°
04/30 - 08:45 AM69.0°53.8°